Location: Staunton
(38.1490°N, 79.0720°W)
Time: 01:29:56
(UTC-05:00)

ISS - Pass Details

Date: 16 January 2018
Orbit: 402 x 407 km, 51.6° (Epoch: 21 January)

Event Time Altitude Azimuth Distance (km) Brightness Sun altitude
Exits shadow 04:47:27 10° 90° (E) 1,432 -0.2 -31.8°
Drops below altitude 10° 04:47:31 10° 90° (E) 1,459 -0.1 -31.8°
Sets 04:49:48 0° 104° (ESE) 2,317 1.1 -31.3°
